FWI64Y LFPO-MDPC

Flight info

Callsign FWI64Y
Flight time N/A
Altitude 38000
Route LGL UN491 OTOFE DCT ALUTA DCT TAKAS/M084F380 DCT TAMEL DCT 4730N02000W 47N030W 45N040W 43N045W/M084F400 4045N04850W DCT NUMBR DCT SEAVR DCT DUPAN DCT KEEKA/N0480F400 M597 BETIR BETIR2B
Aircraft A359/H-SDE2E3GHIJ3J4J5LM1ORWXY/LB1D1

Departure

Time 2026-05-01 10:47
Airport Paris-Orly Airport (LFPO)

Arrival

Time N/A
Airport Punta Cana International Airport (MDPC)
Time Latitude Longitude Altitude Speed Heading
2026-05-01 10:17 48.72810 2.37331 300 ft 0 kts 341°
2026-05-01 10:37 48.72798 2.37337 304 ft 4 kts 342°
2026-05-01 10:37 48.72778 2.37347 304 ft 4 kts 339°
2026-05-01 10:38 48.72754 2.37364 303 ft 4 kts 322°
2026-05-01 10:38 48.72740 2.37391 303 ft 4 kts 263°
2026-05-01 10:38 48.72745 2.37428 302 ft 4 kts 254°
2026-05-01 10:38 48.72748 2.37441 303 ft 0 kts 254°
2026-05-01 10:40 48.72744 2.37418 303 ft 10 kts 255°
2026-05-01 10:41 48.72720 2.37291 302 ft 13 kts 254°
2026-05-01 10:41 48.72693 2.37150 303 ft 15 kts 255°
2026-05-01 10:41 48.72632 2.36833 303 ft 17 kts 251°
2026-05-01 10:42 48.72588 2.36663 306 ft 17 kts 241°
2026-05-01 10:42 48.72569 2.36630 305 ft 2 kts 219°
2026-05-01 10:42 48.72532 2.36615 304 ft 7 kts 196°
2026-05-01 10:42 48.72487 2.36551 306 ft 10 kts 240°
2026-05-01 10:43 48.72461 2.36441 304 ft 12 kts 252°
2026-05-01 10:43 48.72437 2.36315 303 ft 13 kts 255°
2026-05-01 10:43 48.72411 2.36172 305 ft 16 kts 255°
2026-05-01 10:43 48.72380 2.36004 306 ft 17 kts 254°
2026-05-01 10:44 48.72348 2.35825 302 ft 18 kts 255°
2026-05-01 10:44 48.72303 2.35645 304 ft 19 kts 232°
2026-05-01 10:44 48.72189 2.35619 301 ft 18 kts 165°
2026-05-01 10:44 48.72075 2.35682 305 ft 13 kts 146°
2026-05-01 10:45 48.72039 2.35738 305 ft 0 kts 127°
2026-05-01 10:46 48.72037 2.35742 305 ft 3 kts 127°
2026-05-01 10:46 48.72005 2.35818 306 ft 13 kts 118°
2026-05-01 10:46 48.71970 2.35965 305 ft 15 kts 94°
2026-05-01 10:46 48.71977 2.36038 304 ft 7 kts 77°
2026-05-01 10:47 48.72047 2.36430 304 ft 72 kts 74°
2026-05-01 10:47 48.72238 2.37459 304 ft 129 kts 74°
2026-05-01 10:47 48.72529 2.39050 381 ft 168 kts 73°
2026-05-01 10:47 48.72828 2.40665 1120 ft 155 kts 76°
2026-05-01 10:48 48.73114 2.42321 1464 ft 171 kts 76°
2026-05-01 10:48 48.73409 2.44169 1718 ft 190 kts 77°
2026-05-01 10:48 48.73742 2.46214 1957 ft 209 kts 77°
2026-05-01 10:48 48.74035 2.48477 2157 ft 230 kts 83°
2026-05-01 10:49 48.74195 2.50988 2369 ft 249 kts 87°
2026-05-01 10:49 48.74290 2.53706 2587 ft 267 kts 89°
2026-05-01 10:49 48.74211 2.56561 3061 ft 270 kts 104°
2026-05-01 10:49 48.73385 2.59044 3877 ft 257 kts 135°
2026-05-01 10:50 48.71915 2.60463 4610 ft 251 kts 163°
2026-05-01 10:50 48.70182 2.60791 5157 ft 255 kts 186°
2026-05-01 10:50 48.68423 2.60313 5757 ft 258 kts 195°
2026-05-01 10:50 48.66782 2.59202 6364 ft 262 kts 213°
2026-05-01 10:51 48.65538 2.57249 6945 ft 268 kts 238°
2026-05-01 10:51 48.64982 2.54514 7477 ft 274 kts 257°
2026-05-01 10:51 48.64396 2.51737 7994 ft 276 kts 245°
2026-05-01 10:51 48.63742 2.48997 8536 ft 280 kts 250°
2026-05-01 10:52 48.63200 2.46147 9110 ft 284 kts 254°
2026-05-01 10:52 48.62862 2.43183 9660 ft 289 kts 264°
2026-05-01 10:52 48.62767 2.40133 10244 ft 292 kts 266°
2026-05-01 10:52 48.62727 2.37016 10582 ft 303 kts 267°
2026-05-01 10:53 48.62708 2.33787 10829 ft 317 kts 268°
2026-05-01 10:53 48.62704 2.30394 11115 ft 329 kts 268°
2026-05-01 10:53 48.62725 2.26859 11363 ft 341 kts 270°
2026-05-01 10:53 48.62984 2.23228 11605 ft 354 kts 276°
2026-05-01 10:54 48.63375 2.19414 11961 ft 361 kts 277°
2026-05-01 10:54 48.63769 2.15633 12421 ft 365 kts 276°
2026-05-01 10:54 48.64160 2.11823 12866 ft 370 kts 276°
2026-05-01 10:54 48.64551 2.07961 13310 ft 374 kts 276°
2026-05-01 10:55 48.64946 2.04051 13748 ft 377 kts 276°
2026-05-01 10:55 48.65341 2.00120 14170 ft 381 kts 276°
2026-05-01 10:55 48.65739 1.96138 14573 ft 384 kts 276°
2026-05-01 10:55 48.66138 1.92141 14986 ft 386 kts 275°
2026-05-01 10:56 48.66537 1.88113 15376 ft 389 kts 275°
2026-05-01 10:56 48.66920 1.84048 15773 ft 391 kts 275°
2026-05-01 10:56 48.67285 1.79952 16181 ft 394 kts 274°
2026-05-01 10:56 48.67645 1.75830 16570 ft 397 kts 274°
2026-05-01 10:57 48.68007 1.71676 16986 ft 400 kts 274°
2026-05-01 10:57 48.68373 1.67494 17392 ft 402 kts 274°
2026-05-01 10:57 48.68743 1.63284 17791 ft 405 kts 274°
2026-05-01 10:57 48.69110 1.59107 18184 ft 407 kts 274°
2026-05-01 10:58 48.69483 1.54852 18570 ft 410 kts 274°
2026-05-01 10:58 48.69864 1.50503 18903 ft 412 kts 274°
2026-05-01 10:58 48.70239 1.46192 19244 ft 414 kts 274°
2026-05-01 10:58 48.70615 1.41861 19583 ft 416 kts 274°
2026-05-01 10:59 48.70992 1.37507 19926 ft 418 kts 274°
2026-05-01 10:59 48.71368 1.33137 20270 ft 420 kts 274°
2026-05-01 10:59 48.71744 1.28735 20628 ft 422 kts 274°
2026-05-01 10:59 48.72120 1.24317 20966 ft 424 kts 274°
2026-05-01 11:00 48.72496 1.19882 21305 ft 426 kts 274°
2026-05-01 11:00 48.72872 1.15427 21645 ft 428 kts 274°
2026-05-01 11:00 48.73248 1.10946 21966 ft 430 kts 274°
2026-05-01 11:00 48.73624 1.06451 22289 ft 432 kts 274°
2026-05-01 11:01 48.74000 1.01930 22610 ft 434 kts 274°
2026-05-01 11:01 48.74376 0.97384 22939 ft 435 kts 274°
2026-05-01 11:01 48.74752 0.92825 23244 ft 437 kts 274°
2026-05-01 11:01 48.75128 0.88235 23561 ft 439 kts 274°
2026-05-01 11:02 48.75502 0.83644 23902 ft 440 kts 274°
2026-05-01 11:02 48.75877 0.79032 24161 ft 442 kts 274°
2026-05-01 11:02 48.76250 0.74406 24400 ft 444 kts 274°
2026-05-01 11:02 48.76624 0.69748 24675 ft 446 kts 274°
2026-05-01 11:03 48.76996 0.65084 24931 ft 448 kts 274°
2026-05-01 11:03 48.77371 0.60371 25195 ft 450 kts 274°
2026-05-01 11:03 48.77743 0.55660 25448 ft 451 kts 274°
2026-05-01 11:03 48.78115 0.50923 25707 ft 453 kts 274°
2026-05-01 11:04 48.78361 0.47786 25885 ft 454 kts 274°
2026-05-01 11:04 48.78857 0.41405 26276 ft 456 kts 274°
2026-05-01 11:04 48.79227 0.36632 26590 ft 457 kts 274°
2026-05-01 11:04 48.79471 0.33458 26760 ft 458 kts 274°
2026-05-01 11:05 48.79840 0.28641 27034 ft 460 kts 274°
2026-05-01 11:05 48.80208 0.23814 27320 ft 462 kts 274°
2026-05-01 11:05 48.80576 0.18960 27601 ft 464 kts 274°
2026-05-01 11:05 48.80944 0.14081 27897 ft 466 kts 274°
2026-05-01 11:06 48.81309 0.09196 28186 ft 468 kts 274°
2026-05-01 11:06 48.81676 0.04273 28479 ft 470 kts 274°
2026-05-01 11:06 48.82041 -0.00662 28786 ft 472 kts 274°
2026-05-01 11:07 48.82765 -0.10523 29597 ft 472 kts 274°
2026-05-01 11:07 48.83127 -0.15495 29898 ft 474 kts 274°
2026-05-01 11:07 48.83487 -0.20468 30200 ft 476 kts 274°
2026-05-01 11:07 48.83847 -0.25485 30464 ft 478 kts 274°
2026-05-01 11:08 48.84183 -0.30518 30736 ft 480 kts 273°
2026-05-01 11:08 48.84461 -0.35561 31022 ft 481 kts 272°
2026-05-01 11:08 48.84960 -0.45725 31543 ft 484 kts 272°
2026-05-01 11:09 48.85210 -0.50828 31805 ft 485 kts 273°
2026-05-01 11:09 48.85465 -0.55939 32051 ft 487 kts 273°
2026-05-01 11:09 48.85724 -0.61069 32295 ft 488 kts 273°
2026-05-01 11:10 48.86247 -0.71368 32765 ft 491 kts 273°
2026-05-01 11:10 48.86510 -0.76549 32974 ft 492 kts 273°
2026-05-01 11:10 48.86770 -0.81739 33185 ft 494 kts 273°
2026-05-01 11:10 48.87028 -0.86941 33372 ft 495 kts 273°
2026-05-01 11:11 48.87283 -0.92154 33809 ft 491 kts 274°
2026-05-01 11:11 48.87532 -0.97273 34387 ft 484 kts 274°
2026-05-01 11:11 48.87777 -1.02364 34643 ft 483 kts 273°
2026-05-01 11:11 48.88020 -1.07461 34813 ft 485 kts 274°
2026-05-01 11:12 48.88260 -1.12573 35038 ft 484 kts 273°
2026-05-01 11:12 48.88498 -1.17673 35281 ft 484 kts 273°
2026-05-01 11:12 48.88734 -1.22778 35508 ft 484 kts 273°
2026-05-01 11:12 48.88968 -1.27872 35725 ft 483 kts 273°
2026-05-01 11:13 48.89199 -1.32956 35983 ft 482 kts 272°
2026-05-01 11:13 48.89426 -1.38011 36444 ft 477 kts 273°
2026-05-01 11:13 48.89649 -1.43027 36730 ft 475 kts 273°
2026-05-01 11:13 48.89868 -1.47974 36877 ft 476 kts 272°
2026-05-01 11:14 48.90089 -1.52991 37048 ft 476 kts 273°
2026-05-01 11:14 48.90309 -1.58022 37209 ft 477 kts 273°
2026-05-01 11:14 48.90525 -1.63043 37353 ft 477 kts 272°
2026-05-01 11:14 48.90738 -1.68079 37572 ft 477 kts 272°
2026-05-01 11:15 48.90952 -1.73170 37754 ft 476 kts 272°
2026-05-01 11:15 48.91163 -1.78195 37923 ft 476 kts 272°
2026-05-01 11:15 48.91373 -1.83201 38149 ft 475 kts 272°
2026-05-01 11:15 48.91574 -1.88136 38323 ft 474 kts 272°
2026-05-01 11:16 48.91776 -1.93142 38473 ft 474 kts 272°
2026-05-01 11:16 48.91975 -1.98146 38615 ft 474 kts 272°
2026-05-01 11:16 48.92172 -2.03143 38766 ft 474 kts 272°
2026-05-01 11:16 48.92367 -2.08132 38883 ft 473 kts 272°
2026-05-01 11:17 48.92560 -2.13129 38995 ft 473 kts 272°
2026-05-01 11:17 48.92752 -2.18129 39081 ft 473 kts 272°
2026-05-01 11:17 48.92942 -2.23119 39199 ft 473 kts 271°
2026-05-01 11:17 48.93129 -2.28105 39312 ft 472 kts 271°
2026-05-01 11:18 48.93496 -2.38081 39476 ft 472 kts 271°
2026-05-01 11:18 48.93855 -2.48062 39637 ft 473 kts 271°
2026-05-01 11:19 48.94207 -2.58042 39779 ft 473 kts 271°
2026-05-01 11:19 48.94541 -2.68036 39959 ft 472 kts 270°
2026-05-01 11:20 48.94865 -2.77999 40113 ft 472 kts 270°
2026-05-01 11:20 48.95183 -2.87972 40213 ft 472 kts 270°
2026-05-01 11:21 48.95494 -2.97974 40245 ft 475 kts 270°
2026-05-01 11:21 48.95798 -3.08031 40251 ft 477 kts 270°
2026-05-01 11:22 48.96096 -3.18112 40225 ft 476 kts 269°
2026-05-01 11:22 48.96383 -3.28173 40224 ft 476 kts 269°
2026-05-01 11:23 48.96661 -3.38237 40225 ft 476 kts 269°
2026-05-01 11:23 48.96930 -3.48303 40217 ft 476 kts 269°
2026-05-01 11:24 48.97191 -3.58376 40225 ft 476 kts 269°
2026-05-01 11:25 48.97565 -3.73472 40225 ft 476 kts 269°
2026-05-01 11:25 48.97919 -3.88558 40229 ft 476 kts 269°
2026-05-01 11:26 48.98253 -4.03587 40229 ft 475 kts 269°
2026-05-01 11:27 48.98467 -4.13702 40224 ft 475 kts 269°
2026-05-01 11:27 48.98670 -4.23754 40223 ft 475 kts 268°
2026-05-01 11:28 48.98864 -4.33798 40222 ft 475 kts 268°
2026-05-01 11:28 48.99049 -4.43783 40228 ft 475 kts 268°
2026-05-01 11:29 48.99311 -4.58853 40223 ft 475 kts 268°
2026-05-01 11:30 48.99554 -4.73946 40224 ft 476 kts 268°
2026-05-01 11:30 48.99705 -4.84016 40225 ft 475 kts 268°
2026-05-01 11:31 48.99847 -4.94072 40226 ft 475 kts 268°
2026-05-01 11:31 48.99981 -5.04150 40225 ft 475 kts 268°
2026-05-01 11:32 49.00106 -5.14215 40222 ft 475 kts 268°
2026-05-01 11:32 49.00222 -5.24295 40222 ft 475 kts 268°
2026-05-01 11:33 49.00329 -5.34362 40217 ft 475 kts 267°
2026-05-01 11:33 49.00428 -5.44430 40219 ft 476 kts 267°
2026-05-01 11:34 49.00517 -5.54499 40221 ft 475 kts 267°
2026-05-01 11:34 49.00598 -5.64565 40214 ft 475 kts 267°
2026-05-01 11:35 49.00671 -5.74637 40232 ft 476 kts 267°
2026-05-01 11:35 49.00734 -5.84720 40217 ft 477 kts 267°
2026-05-01 11:36 49.00789 -5.94826 40216 ft 477 kts 266°
2026-05-01 11:36 49.00835 -6.04931 40211 ft 477 kts 266°
2026-05-01 11:37 49.00872 -6.15024 40214 ft 477 kts 266°
2026-05-01 11:37 49.00901 -6.25148 40208 ft 477 kts 266°
2026-05-01 11:38 49.00920 -6.35259 40202 ft 478 kts 266°
2026-05-01 11:38 49.00931 -6.45372 40207 ft 478 kts 266°
2026-05-01 11:39 49.00933 -6.55502 40206 ft 478 kts 266°
2026-05-01 11:39 49.00926 -6.65616 40205 ft 478 kts 266°
2026-05-01 11:40 49.00910 -6.75760 40202 ft 479 kts 266°
2026-05-01 11:40 49.00885 -6.85914 40200 ft 480 kts 266°
2026-05-01 11:41 49.00852 -6.95999 40199 ft 479 kts 266°
2026-05-01 11:41 49.00809 -7.06144 40211 ft 479 kts 266°
2026-05-01 11:42 49.00758 -7.16307 40196 ft 480 kts 266°
2026-05-01 11:42 49.00697 -7.26549 40197 ft 481 kts 266°
2026-05-01 11:43 49.00627 -7.36732 40195 ft 481 kts 266°
2026-05-01 11:43 49.00549 -7.46907 40189 ft 481 kts 265°
2026-05-01 11:44 49.00418 -7.62127 40186 ft 481 kts 266°
2026-05-01 11:44 49.00320 -7.72323 40186 ft 482 kts 265°
2026-05-01 11:45 49.00212 -7.82520 40178 ft 482 kts 265°
2026-05-01 11:45 49.00096 -7.92714 40179 ft 481 kts 265°
2026-05-01 11:46 48.99683 -8.02857 40178 ft 479 kts 259°
2026-05-01 11:46 48.98772 -8.12888 40170 ft 478 kts 258°
2026-05-01 11:47 48.97773 -8.22887 40173 ft 478 kts 258°
2026-05-01 11:47 48.96759 -8.32885 40167 ft 478 kts 258°
2026-05-01 11:48 48.95744 -8.42884 40176 ft 478 kts 258°
2026-05-01 11:48 48.94726 -8.52891 40163 ft 479 kts 258°
2026-05-01 11:49 48.93700 -8.62894 40157 ft 478 kts 258°
2026-05-01 11:49 48.92667 -8.72883 40166 ft 478 kts 258°
2026-05-01 11:50 48.91623 -8.82880 40172 ft 479 kts 258°
2026-05-01 11:50 48.90749 -8.91177 40163 ft 479 kts 258°
2026-05-01 11:51 48.89689 -9.01171 40158 ft 479 kts 258°
2026-05-01 11:51 48.88620 -9.11159 40165 ft 479 kts 258°
2026-05-01 11:52 48.87543 -9.21139 40158 ft 479 kts 258°
2026-05-01 11:52 48.86457 -9.31121 40159 ft 479 kts 258°
2026-05-01 11:53 48.85363 -9.41089 40152 ft 479 kts 258°
2026-05-01 11:53 48.84260 -9.51054 40151 ft 479 kts 258°
2026-05-01 11:54 48.83150 -9.61012 40153 ft 479 kts 258°
2026-05-01 11:54 48.82030 -9.70967 40152 ft 478 kts 258°
2026-05-01 11:55 48.80902 -9.80917 40139 ft 479 kts 258°
2026-05-01 11:55 48.79764 -9.90870 40134 ft 479 kts 258°
2026-05-01 11:56 48.78619 -10.00813 40137 ft 479 kts 257°
2026-05-01 11:56 48.77464 -10.10755 40141 ft 479 kts 258°
2026-05-01 11:57 48.76300 -10.20695 40135 ft 480 kts 258°
2026-05-01 11:57 48.75135 -10.30582 40133 ft 480 kts 257°
2026-05-01 11:58 48.73952 -10.40535 40130 ft 480 kts 257°
2026-05-01 11:59 48.72220 -10.55469 40128 ft 481 kts 260°
2026-05-01 11:59 48.71374 -10.65595 40127 ft 482 kts 261°
2026-05-01 12:00 48.70151 -10.80693 40129 ft 481 kts 260°
2026-05-01 12:01 48.68824 -10.95749 40129 ft 481 kts 260°
2026-05-01 12:01 48.67922 -11.05716 40116 ft 482 kts 260°
2026-05-01 12:02 48.67005 -11.15761 40116 ft 482 kts 260°
2026-05-01 12:02 48.66081 -11.25801 40113 ft 482 kts 260°
2026-05-01 12:03 48.65149 -11.35836 40115 ft 482 kts 260°
2026-05-01 12:03 48.64209 -11.45865 40113 ft 482 kts 260°
2026-05-01 12:04 48.63258 -11.55910 40108 ft 483 kts 260°
2026-05-01 12:04 48.62299 -11.65951 40107 ft 483 kts 259°
2026-05-01 12:05 48.61331 -11.75984 40109 ft 483 kts 259°
2026-05-01 12:05 48.59860 -11.91048 40106 ft 484 kts 259°
2026-05-01 12:06 48.58864 -12.01131 40106 ft 485 kts 259°
2026-05-01 12:06 48.57862 -12.11195 40104 ft 485 kts 259°
2026-05-01 12:07 48.56849 -12.21266 40113 ft 485 kts 259°
2026-05-01 12:07 48.55826 -12.31340 40103 ft 487 kts 259°
2026-05-01 12:08 48.54791 -12.41447 40099 ft 488 kts 259°
2026-05-01 12:08 48.53748 -12.51550 40100 ft 487 kts 259°
2026-05-01 12:09 48.52695 -12.61655 40102 ft 487 kts 259°
2026-05-01 12:09 48.51632 -12.71755 40103 ft 488 kts 259°
2026-05-01 12:10 48.50020 -12.86921 40100 ft 489 kts 259°
2026-05-01 12:11 48.48387 -13.02090 40100 ft 489 kts 259°
2026-05-01 12:11 48.47286 -13.12199 40100 ft 489 kts 259°
2026-05-01 12:12 48.46176 -13.22316 40100 ft 489 kts 259°
2026-05-01 12:12 48.45058 -13.32419 40099 ft 489 kts 259°
2026-05-01 12:13 48.43932 -13.42509 40099 ft 489 kts 259°
2026-05-01 12:13 48.42803 -13.52538 40101 ft 489 kts 259°
2026-05-01 12:14 48.41658 -13.62626 40099 ft 489 kts 259°
2026-05-01 12:14 48.40505 -13.72710 40099 ft 489 kts 259°
2026-05-01 12:15 48.39343 -13.82783 40102 ft 489 kts 259°
2026-05-01 12:15 48.38172 -13.92856 40104 ft 489 kts 259°
2026-05-01 12:16 48.36994 -14.02914 40099 ft 488 kts 259°
2026-05-01 12:16 48.35807 -14.12967 40099 ft 488 kts 259°
2026-05-01 12:17 48.34610 -14.23027 40099 ft 488 kts 259°
2026-05-01 12:17 48.33405 -14.33073 40103 ft 488 kts 259°
2026-05-01 12:18 48.32193 -14.43105 40105 ft 488 kts 259°
2026-05-01 12:18 48.30971 -14.53130 40105 ft 488 kts 259°
2026-05-01 12:19 48.29742 -14.63149 40107 ft 488 kts 259°
2026-05-01 12:19 48.28504 -14.73156 40106 ft 488 kts 259°
2026-05-01 12:20 48.27259 -14.83153 40105 ft 488 kts 259°
2026-05-01 12:20 48.26004 -14.93150 40107 ft 487 kts 259°
2026-05-01 12:21 48.24741 -15.03142 40107 ft 487 kts 259°
2026-05-01 12:21 48.23469 -15.13131 40107 ft 487 kts 259°
2026-05-01 12:22 48.22187 -15.23119 40108 ft 487 kts 259°
2026-05-01 12:22 48.20901 -15.33076 40108 ft 487 kts 259°
2026-05-01 12:23 48.19606 -15.43027 40110 ft 486 kts 258°
2026-05-01 12:23 48.18300 -15.52990 40110 ft 487 kts 258°
2026-05-01 12:24 48.16987 -15.62931 40115 ft 487 kts 258°
2026-05-01 12:24 48.15675 -15.72797 40119 ft 486 kts 258°
2026-05-01 12:25 48.13681 -15.87672 40118 ft 486 kts 258°
2026-05-01 12:26 48.12339 -15.97593 40127 ft 486 kts 258°
2026-05-01 12:26 48.10311 -16.12458 40127 ft 486 kts 259°
2026-05-01 12:27 48.08256 -16.27368 40128 ft 486 kts 258°
2026-05-01 12:28 48.06189 -16.42207 40130 ft 486 kts 259°
2026-05-01 12:29 48.04103 -16.57045 40136 ft 486 kts 259°
2026-05-01 12:29 48.02000 -16.71854 40143 ft 485 kts 258°
2026-05-01 12:30 47.99888 -16.86572 40144 ft 485 kts 259°
2026-05-01 12:31 47.98466 -16.96412 40146 ft 485 kts 259°
2026-05-01 12:31 47.97036 -17.06241 40151 ft 485 kts 258°
2026-05-01 12:32 47.95595 -17.16076 40150 ft 485 kts 258°
2026-05-01 12:32 47.93420 -17.30807 40155 ft 484 kts 258°
2026-05-01 12:33 47.91962 -17.40601 40156 ft 484 kts 258°
2026-05-01 12:33 47.90496 -17.50387 40158 ft 484 kts 258°
2026-05-01 12:34 47.89023 -17.60176 40160 ft 483 kts 258°
2026-05-01 12:34 47.87541 -17.69950 40168 ft 484 kts 258°
2026-05-01 12:35 47.86051 -17.79712 40166 ft 484 kts 258°
2026-05-01 12:35 47.84804 -17.87837 40172 ft 484 kts 258°
2026-05-01 12:36 47.83300 -17.97603 40172 ft 484 kts 258°
2026-05-01 12:36 47.81785 -18.07359 40176 ft 484 kts 258°
2026-05-01 12:37 47.80263 -18.17113 40182 ft 484 kts 258°
2026-05-01 12:37 47.78729 -18.26881 40184 ft 485 kts 258°
2026-05-01 12:38 47.77188 -18.36636 40188 ft 485 kts 258°
2026-05-01 12:38 47.75637 -18.46381 40188 ft 485 kts 258°
2026-05-01 12:39 47.74076 -18.56144 40190 ft 486 kts 258°
2026-05-01 12:39 47.72507 -18.65904 40198 ft 486 kts 258°
2026-05-01 12:40 47.70919 -18.75726 40197 ft 486 kts 257°
2026-05-01 12:40 47.69332 -18.85484 40203 ft 487 kts 257°
2026-05-01 12:41 47.67731 -18.95265 40206 ft 489 kts 257°
2026-05-01 12:41 47.66115 -19.05082 40207 ft 489 kts 257°
2026-05-01 12:42 47.64494 -19.14874 40211 ft 489 kts 257°
2026-05-01 12:42 47.62861 -19.24669 40208 ft 490 kts 258°
2026-05-01 12:43 47.61219 -19.34479 40214 ft 490 kts 257°
2026-05-01 12:43 47.59577 -19.44222 40213 ft 490 kts 257°
2026-05-01 12:44 47.57906 -19.54080 40219 ft 491 kts 257°
2026-05-01 12:45 47.54555 -19.73705 40221 ft 493 kts 257°
2026-05-01 12:45 47.52871 -19.83476 40226 ft 494 kts 257°
2026-05-01 12:46 47.51166 -19.93317 40231 ft 493 kts 257°
2026-05-01 12:46 47.50060 -20.03286 40232 ft 491 kts 268°
2026-05-01 12:47 47.49855 -20.13370 40236 ft 491 kts 271°
2026-05-01 12:47 47.49796 -20.23481 40233 ft 492 kts 271°
2026-05-01 12:48 47.49740 -20.33610 40239 ft 494 kts 270°
2026-05-01 12:48 47.49653 -20.43775 40228 ft 494 kts 271°
2026-05-01 12:49 47.49547 -20.53950 40244 ft 495 kts 271°
2026-05-01 12:49 47.49430 -20.64130 40249 ft 495 kts 270°
2026-05-01 12:50 47.49306 -20.74314 40249 ft 496 kts 270°
2026-05-01 12:50 47.49172 -20.84504 40251 ft 495 kts 271°
2026-05-01 12:51 47.49028 -20.94691 40255 ft 496 kts 270°
2026-05-01 12:52 47.48799 -21.09970 40259 ft 496 kts 271°
2026-05-01 12:52 47.48546 -21.25256 40263 ft 496 kts 271°
2026-05-01 12:53 47.48275 -21.40540 40265 ft 497 kts 271°
2026-05-01 12:54 47.48081 -21.50763 40271 ft 498 kts 270°
2026-05-01 12:54 47.47775 -21.66125 40269 ft 499 kts 270°
2026-05-01 12:55 47.47448 -21.81481 40278 ft 499 kts 270°
2026-05-01 12:56 47.47219 -21.91732 40277 ft 499 kts 270°
2026-05-01 12:56 47.46979 -22.01981 40279 ft 499 kts 270°
2026-05-01 12:57 47.46730 -22.12232 40284 ft 499 kts 270°
2026-05-01 12:57 47.46341 -22.27593 40290 ft 499 kts 269°
2026-05-01 12:58 47.46069 -22.37850 40298 ft 500 kts 270°
2026-05-01 12:59 47.45645 -22.53241 40301 ft 500 kts 269°
2026-05-01 12:59 47.45199 -22.68633 40288 ft 500 kts 270°
2026-05-01 13:00 47.44733 -22.84049 40302 ft 502 kts 270°
2026-05-01 13:01 47.44245 -22.99500 40295 ft 502 kts 269°
2026-05-01 13:02 47.43735 -23.14943 40304 ft 502 kts 269°
2026-05-01 13:07 47.39372 -24.28003 40330 ft 500 kts 269°
2026-05-01 13:08 47.38922 -24.38250 40328 ft 500 kts 269°
2026-05-01 13:08 47.38465 -24.48431 40334 ft 501 kts 269°
2026-05-01 13:09 47.37995 -24.58681 40334 ft 501 kts 269°
2026-05-01 13:09 47.37517 -24.68928 40336 ft 501 kts 268°
2026-05-01 13:10 47.37029 -24.79177 40335 ft 501 kts 268°
2026-05-01 13:10 47.36532 -24.89428 40333 ft 501 kts 268°
2026-05-01 13:11 47.36023 -24.99734 40345 ft 501 kts 268°
2026-05-01 13:11 47.35508 -25.09974 40345 ft 501 kts 268°
2026-05-01 13:12 47.34984 -25.20223 40348 ft 501 kts 268°
2026-05-01 13:12 47.34451 -25.30454 40338 ft 500 kts 268°
2026-05-01 13:13 47.33910 -25.40652 40345 ft 499 kts 268°
2026-05-01 13:13 47.33361 -25.50848 40347 ft 499 kts 268°
2026-05-01 13:14 47.32803 -25.61035 40348 ft 499 kts 268°
2026-05-01 13:14 47.32236 -25.71218 40352 ft 499 kts 268°
2026-05-01 13:15 47.31660 -25.81403 40349 ft 499 kts 268°
2026-05-01 13:15 47.31078 -25.91518 40356 ft 498 kts 268°
2026-05-01 13:16 47.30484 -26.01694 40364 ft 498 kts 268°
2026-05-01 13:16 47.29882 -26.11859 40363 ft 498 kts 267°
2026-05-01 13:17 47.28649 -26.32198 40352 ft 499 kts 267°
2026-05-01 13:18 47.27808 -26.45737 40366 ft 499 kts 267°
2026-05-01 13:18 47.27166 -26.55903 40362 ft 498 kts 267°
2026-05-01 13:19 47.26515 -26.66051 40362 ft 498 kts 267°
2026-05-01 13:20 47.25524 -26.81265 40368 ft 498 kts 267°
2026-05-01 13:20 47.24852 -26.91395 40365 ft 498 kts 267°
2026-05-01 13:21 47.23827 -27.06607 40366 ft 498 kts 266°
2026-05-01 13:21 47.23133 -27.16729 40373 ft 497 kts 266°
2026-05-01 13:22 47.22430 -27.26848 40374 ft 497 kts 266°
2026-05-01 13:22 47.21717 -27.36975 40370 ft 497 kts 266°
2026-05-01 13:23 47.20997 -27.47085 40368 ft 497 kts 266°
2026-05-01 13:23 47.20267 -27.57197 40376 ft 497 kts 266°
2026-05-01 13:24 47.19529 -27.67303 40376 ft 497 kts 266°
2026-05-01 13:25 47.18406 -27.82449 40376 ft 497 kts 266°
2026-05-01 13:25 47.17645 -27.92548 40377 ft 497 kts 266°
2026-05-01 13:26 47.16876 -28.02643 40382 ft 497 kts 266°
2026-05-01 13:26 47.16098 -28.12736 40381 ft 497 kts 266°
2026-05-01 13:27 47.15311 -28.22827 40381 ft 497 kts 266°
2026-05-01 13:27 47.14114 -28.37956 40381 ft 497 kts 265°
2026-05-01 13:28 47.12897 -28.53075 40387 ft 497 kts 265°
2026-05-01 13:29 47.11242 -28.73240 40384 ft 497 kts 265°
2026-05-01 13:31 47.08694 -29.03471 40388 ft 498 kts 265°
2026-05-01 13:32 47.06509 -29.28633 40390 ft 497 kts 265°
2026-05-01 13:33 47.04269 -29.53792 40390 ft 498 kts 264°
2026-05-01 13:34 47.02436 -29.73915 40388 ft 498 kts 264°
2026-05-01 13:35 47.01036 -29.89012 40388 ft 498 kts 264°
2026-05-01 13:36 46.99576 -30.04077 40388 ft 499 kts 261°
2026-05-01 13:36 46.97261 -30.18981 40392 ft 500 kts 258°
2026-05-01 13:37 46.95646 -30.28893 40393 ft 500 kts 259°
2026-05-01 13:37 46.94094 -30.38807 40394 ft 500 kts 259°
2026-05-01 13:38 46.91797 -30.53691 40391 ft 500 kts 259°
2026-05-01 13:39 46.90254 -30.63616 40393 ft 501 kts 259°
2026-05-01 13:39 46.88703 -30.73518 40389 ft 500 kts 258°
2026-05-01 13:40 46.87140 -30.83425 40388 ft 499 kts 258°
2026-05-01 13:40 46.85571 -30.93314 40399 ft 500 kts 258°
2026-05-01 13:41 46.83991 -31.03204 40390 ft 500 kts 258°
2026-05-01 13:41 46.82404 -31.13086 40393 ft 500 kts 258°
2026-05-01 13:42 46.80808 -31.22968 40379 ft 500 kts 258°
2026-05-01 13:42 46.79206 -31.32832 40390 ft 499 kts 257°
2026-05-01 13:43 46.77595 -31.42681 40395 ft 499 kts 257°
2026-05-01 13:43 46.75978 -31.52514 40381 ft 499 kts 257°
2026-05-01 13:44 46.74352 -31.62346 40381 ft 498 kts 257°
2026-05-01 13:44 46.72718 -31.72170 40385 ft 499 kts 257°
2026-05-01 13:45 46.71076 -31.81986 40398 ft 499 kts 257°
2026-05-01 13:45 46.69426 -31.91792 40385 ft 498 kts 256°
2026-05-01 13:46 46.67779 -32.01526 40378 ft 498 kts 256°
2026-05-01 13:46 46.66105 -32.11371 40390 ft 497 kts 256°
2026-05-01 13:47 46.64434 -32.21129 40387 ft 497 kts 256°
2026-05-01 13:47 46.62755 -32.30884 40374 ft 497 kts 256°
2026-05-01 13:48 46.61070 -32.40627 40389 ft 497 kts 256°
2026-05-01 13:48 46.59376 -32.50363 40369 ft 497 kts 255°
2026-05-01 13:49 46.57676 -32.60081 40389 ft 497 kts 255°
2026-05-01 13:49 46.55967 -32.69794 40388 ft 496 kts 255°
2026-05-01 13:50 46.54248 -32.79516 40387 ft 496 kts 255°
2026-05-01 13:50 46.52520 -32.89230 40383 ft 497 kts 255°
2026-05-01 13:51 46.50785 -32.98937 40385 ft 498 kts 255°
2026-05-01 13:51 46.49037 -33.08659 40383 ft 497 kts 254°
2026-05-01 13:52 46.47283 -33.18369 40382 ft 497 kts 255°
2026-05-01 13:52 46.45523 -33.28055 40386 ft 496 kts 254°
2026-05-01 13:53 46.43757 -33.37724 40380 ft 496 kts 254°
2026-05-01 13:53 46.41092 -33.52221 40380 ft 496 kts 254°
2026-05-01 13:54 46.39309 -33.61864 40379 ft 495 kts 253°
2026-05-01 13:54 46.37523 -33.71469 40377 ft 493 kts 253°
2026-05-01 13:55 46.35741 -33.80995 40374 ft 493 kts 253°
2026-05-01 13:55 46.33941 -33.90572 40373 ft 493 kts 253°
2026-05-01 13:56 46.32136 -34.00131 40379 ft 493 kts 253°
2026-05-01 13:56 46.30320 -34.09698 40364 ft 493 kts 253°
2026-05-01 13:57 46.28795 -34.17695 40379 ft 492 kts 252°
2026-05-01 13:57 46.26669 -34.28784 40379 ft 493 kts 253°
2026-05-01 13:58 46.24832 -34.38321 40379 ft 493 kts 253°
2026-05-01 13:58 46.22988 -34.47839 40381 ft 492 kts 253°
2026-05-01 13:59 46.21134 -34.57364 40365 ft 492 kts 252°
2026-05-01 13:59 46.19274 -34.66873 40362 ft 492 kts 252°
2026-05-01 14:00 46.17407 -34.76375 40368 ft 491 kts 252°
2026-05-01 14:00 46.15539 -34.85837 40381 ft 490 kts 252°
2026-05-01 14:01 46.13982 -34.93681 40362 ft 489 kts 252°
2026-05-01 14:01 46.11788 -35.04694 40376 ft 489 kts 252°
2026-05-01 14:02 46.10221 -35.12517 40382 ft 489 kts 252°
2026-05-01 14:02 46.08332 -35.21908 40383 ft 487 kts 251°
2026-05-01 14:03 46.06439 -35.31270 40373 ft 487 kts 251°
2026-05-01 14:03 46.04539 -35.40625 40365 ft 487 kts 251°
2026-05-01 14:04 46.02633 -35.49967 40371 ft 487 kts 251°
2026-05-01 14:04 46.00718 -35.59309 40364 ft 487 kts 251°
2026-05-01 14:05 45.98793 -35.68653 40362 ft 487 kts 251°
2026-05-01 14:05 45.96861 -35.77992 40361 ft 487 kts 251°
2026-05-01 14:06 45.94920 -35.87327 40365 ft 487 kts 251°
2026-05-01 14:06 45.92973 -35.96652 40358 ft 488 kts 251°
2026-05-01 14:07 45.91017 -36.05978 40360 ft 488 kts 251°
2026-05-01 14:08 45.88067 -36.19966 40355 ft 488 kts 251°
2026-05-01 14:08 45.86092 -36.29274 40357 ft 487 kts 250°
2026-05-01 14:09 45.84110 -36.38563 40353 ft 487 kts 250°
2026-05-01 14:09 45.82122 -36.47840 40350 ft 487 kts 251°
2026-05-01 14:10 45.80128 -36.57109 40353 ft 487 kts 250°
2026-05-01 14:10 45.78129 -36.66374 40349 ft 485 kts 251°
2026-05-01 14:11 45.76134 -36.75569 40347 ft 483 kts 249°
2026-05-01 14:11 45.73124 -36.89353 40347 ft 484 kts 250°
2026-05-01 14:12 45.71110 -36.98540 40353 ft 484 kts 250°
2026-05-01 14:12 45.69090 -37.07704 40342 ft 482 kts 250°
2026-05-01 14:13 45.67396 -37.15365 40341 ft 482 kts 250°
2026-05-01 14:13 45.65029 -37.26026 40341 ft 482 kts 250°
2026-05-01 14:14 45.62991 -37.35153 40347 ft 482 kts 250°
2026-05-01 14:14 45.60963 -37.44194 40334 ft 481 kts 250°
2026-05-01 14:15 45.58917 -37.53275 40333 ft 480 kts 250°
2026-05-01 14:15 45.56867 -37.62339 40333 ft 480 kts 250°
2026-05-01 14:16 45.54808 -37.71408 40339 ft 480 kts 250°
2026-05-01 14:16 45.52745 -37.80461 40331 ft 480 kts 249°
2026-05-01 14:17 45.50675 -37.89498 40331 ft 480 kts 249°
2026-05-01 14:17 45.48598 -37.98531 40329 ft 480 kts 250°
2026-05-01 14:18 45.46513 -38.07559 40325 ft 480 kts 249°
2026-05-01 14:18 45.44762 -38.15116 40325 ft 480 kts 249°
2026-05-01 14:19 45.42326 -38.25585 40325 ft 480 kts 249°
2026-05-01 14:19 45.40220 -38.34594 40320 ft 480 kts 249°
2026-05-01 14:20 45.37045 -38.48095 40320 ft 480 kts 249°
2026-05-01 14:21 45.34924 -38.57081 40319 ft 479 kts 249°
2026-05-01 14:21 45.32794 -38.66058 40316 ft 479 kts 249°
2026-05-01 14:22 45.29588 -38.79508 40318 ft 479 kts 249°
2026-05-01 14:22 45.27442 -38.88475 40305 ft 479 kts 249°
2026-05-01 14:23 45.25290 -38.97423 40310 ft 479 kts 249°
2026-05-01 14:23 45.23128 -39.06373 40306 ft 479 kts 249°
2026-05-01 14:24 45.20972 -39.15270 40310 ft 480 kts 249°
2026-05-01 14:24 45.18797 -39.24210 40299 ft 479 kts 249°
2026-05-01 14:25 45.16619 -39.33123 40299 ft 479 kts 249°
2026-05-01 14:25 45.14431 -39.42042 40298 ft 479 kts 249°
2026-05-01 14:26 45.11135 -39.55407 40294 ft 479 kts 249°
2026-05-01 14:27 45.08930 -39.64309 40291 ft 479 kts 249°
2026-05-01 14:27 45.06722 -39.73191 40290 ft 479 kts 248°
2026-05-01 14:28 45.03393 -39.86502 40298 ft 479 kts 249°
2026-05-01 14:28 45.01163 -39.95392 40291 ft 480 kts 248°
2026-05-01 14:29 44.98522 -40.03997 40284 ft 478 kts 241°
2026-05-01 14:30 44.92440 -40.20671 40287 ft 477 kts 240°
2026-05-01 14:31 44.87835 -40.33096 40280 ft 477 kts 240°
2026-05-01 14:31 44.84768 -40.41371 40274 ft 477 kts 240°
2026-05-01 14:32 44.81696 -40.49646 40275 ft 477 kts 241°
2026-05-01 14:32 44.78621 -40.57902 40271 ft 476 kts 240°
2026-05-01 14:33 44.75540 -40.66148 40268 ft 476 kts 240°
2026-05-01 14:33 44.72468 -40.74346 40264 ft 476 kts 240°
2026-05-01 14:34 44.69369 -40.82587 40269 ft 476 kts 240°
2026-05-01 14:34 44.66269 -40.90813 40258 ft 476 kts 240°
2026-05-01 14:35 44.63164 -40.99027 40259 ft 476 kts 240°
2026-05-01 14:35 44.60051 -41.07236 40260 ft 476 kts 240°
2026-05-01 14:36 44.56935 -41.15422 40252 ft 476 kts 240°
2026-05-01 14:36 44.53814 -41.23602 40252 ft 476 kts 240°
2026-05-01 14:37 44.50688 -41.31777 40258 ft 476 kts 240°
2026-05-01 14:37 44.47555 -41.39941 40251 ft 476 kts 239°
2026-05-01 14:38 44.44411 -41.48104 40247 ft 476 kts 240°
2026-05-01 14:38 44.41263 -41.56257 40249 ft 476 kts 240°
2026-05-01 14:39 44.38109 -41.64404 40244 ft 476 kts 240°
2026-05-01 14:39 44.34950 -41.72541 40237 ft 476 kts 239°
2026-05-01 14:40 44.31785 -41.80665 40237 ft 477 kts 240°
2026-05-01 14:40 44.28609 -41.88801 40237 ft 477 kts 240°
2026-05-01 14:41 44.25430 -41.96919 40233 ft 476 kts 239°
2026-05-01 14:41 44.22247 -42.05020 40230 ft 477 kts 240°
2026-05-01 14:42 44.19053 -42.13126 40227 ft 478 kts 240°
2026-05-01 14:42 44.15856 -42.21223 40223 ft 477 kts 240°
2026-05-01 14:43 44.12651 -42.29314 40220 ft 477 kts 240°
2026-05-01 14:43 44.09438 -42.37396 40219 ft 477 kts 240°
2026-05-01 14:44 44.06779 -42.44071 40221 ft 477 kts 240°
2026-05-01 14:44 44.01948 -42.56157 40216 ft 477 kts 240°
2026-05-01 14:45 43.97110 -42.68209 40208 ft 476 kts 240°
2026-05-01 14:46 43.93879 -42.76231 40211 ft 476 kts 240°
2026-05-01 14:46 43.89028 -42.88229 40207 ft 475 kts 240°
2026-05-01 14:47 43.85790 -42.96209 40209 ft 474 kts 240°
2026-05-01 14:48 43.80924 -43.08163 40200 ft 475 kts 240°
2026-05-01 14:48 43.76044 -43.20100 40198 ft 475 kts 240°
2026-05-01 14:49 43.69573 -43.35856 40178 ft 475 kts 240°
2026-05-01 14:50 43.63052 -43.51641 40194 ft 475 kts 240°
2026-05-01 14:51 43.58125 -43.63512 40188 ft 475 kts 240°
2026-05-01 14:52 43.53188 -43.75356 40188 ft 476 kts 240°
2026-05-01 14:53 43.48229 -43.87206 40177 ft 476 kts 240°
2026-05-01 14:53 43.44916 -43.95098 40180 ft 476 kts 240°
2026-05-01 14:54 43.41596 -44.02980 40181 ft 476 kts 240°
2026-05-01 14:54 43.38272 -44.10853 40177 ft 476 kts 240°
2026-05-01 14:55 43.34943 -44.18718 40163 ft 476 kts 240°
2026-05-01 14:55 43.31606 -44.26579 40159 ft 476 kts 240°
2026-05-01 14:56 43.28263 -44.34432 40173 ft 476 kts 240°
2026-05-01 14:56 43.24918 -44.42268 40169 ft 476 kts 240°
2026-05-01 14:57 43.21564 -44.50108 40153 ft 476 kts 240°
2026-05-01 14:57 43.16526 -44.61839 40163 ft 475 kts 240°
2026-05-01 14:58 43.13169 -44.69631 40157 ft 475 kts 240°
2026-05-01 14:58 43.09806 -44.77416 40138 ft 475 kts 240°
2026-05-01 14:59 43.06438 -44.85188 40154 ft 474 kts 240°
2026-05-01 14:59 43.03071 -44.92941 40152 ft 474 kts 240°
2026-05-01 15:00 42.97678 -45.04212 40150 ft 476 kts 234°
2026-05-01 15:01 42.93722 -45.11436 40144 ft 476 kts 234°
2026-05-01 15:01 42.89721 -45.18641 40142 ft 477 kts 233°
2026-05-01 15:02 42.85716 -45.25845 40138 ft 477 kts 234°
2026-05-01 15:02 42.81708 -45.33052 40138 ft 477 kts 234°
2026-05-01 15:03 42.77699 -45.40250 40135 ft 477 kts 234°
2026-05-01 15:03 42.73686 -45.47436 40134 ft 477 kts 234°
2026-05-01 15:04 42.69666 -45.54618 40122 ft 477 kts 234°
2026-05-01 15:04 42.65637 -45.61797 40128 ft 477 kts 234°
2026-05-01 15:05 42.61611 -45.68956 40124 ft 477 kts 234°
2026-05-01 15:05 42.57575 -45.76114 40118 ft 477 kts 234°
2026-05-01 15:06 42.53536 -45.83261 40115 ft 477 kts 234°
2026-05-01 15:06 42.49498 -45.90388 40116 ft 477 kts 234°
2026-05-01 15:07 42.45450 -45.97516 40116 ft 477 kts 234°
2026-05-01 15:07 42.41400 -46.04631 40110 ft 477 kts 234°
2026-05-01 15:08 42.37341 -46.11745 40107 ft 478 kts 234°
2026-05-01 15:08 42.33277 -46.18850 40102 ft 478 kts 234°
2026-05-01 15:09 42.29207 -46.25948 40097 ft 477 kts 234°
2026-05-01 15:09 42.25139 -46.33028 40102 ft 477 kts 234°
2026-05-01 15:10 42.21074 -46.40085 40101 ft 477 kts 234°
2026-05-01 15:10 42.14964 -46.50659 40093 ft 476 kts 234°
2026-05-01 15:11 42.08855 -46.61198 40094 ft 476 kts 234°
2026-05-01 15:12 42.04779 -46.68208 40091 ft 476 kts 234°
2026-05-01 15:12 41.98653 -46.78714 40091 ft 476 kts 234°
2026-05-01 15:14 41.88430 -46.96164 40084 ft 475 kts 234°
2026-05-01 15:14 41.82294 -47.06589 40084 ft 474 kts 234°
2026-05-01 15:15 41.74105 -47.20447 40080 ft 474 kts 234°
2026-05-01 15:16 41.65904 -47.34261 40080 ft 474 kts 234°
2026-05-01 15:18 41.55623 -47.51491 40079 ft 474 kts 233°
2026-05-01 15:19 41.47380 -47.65236 40079 ft 474 kts 233°
2026-05-01 15:19 41.41208 -47.75486 40081 ft 474 kts 233°
2026-05-01 15:20 41.35007 -47.85749 40083 ft 474 kts 233°
2026-05-01 15:21 41.30865 -47.92587 40078 ft 474 kts 233°
2026-05-01 15:21 41.26725 -47.99404 40071 ft 474 kts 233°
2026-05-01 15:22 41.20504 -48.09620 40079 ft 474 kts 233°
2026-05-01 15:22 41.16353 -48.16418 40084 ft 474 kts 233°
2026-05-01 15:23 41.12199 -48.23206 40082 ft 474 kts 233°
2026-05-01 15:23 41.08043 -48.29982 40083 ft 474 kts 233°
2026-05-01 15:24 41.03878 -48.36757 40081 ft 474 kts 233°
2026-05-01 15:24 40.99715 -48.43514 40077 ft 474 kts 233°
2026-05-01 15:25 40.95546 -48.50265 40097 ft 473 kts 233°
2026-05-01 15:25 40.91378 -48.57002 40080 ft 473 kts 233°
2026-05-01 15:26 40.87204 -48.63732 40088 ft 473 kts 233°
2026-05-01 15:26 40.83028 -48.70451 40071 ft 473 kts 233°
2026-05-01 15:27 40.78854 -48.77152 40087 ft 472 kts 233°
2026-05-01 15:28 40.72657 -48.87255 40091 ft 471 kts 236°
2026-05-01 15:28 40.69525 -48.93122 40080 ft 470 kts 238°
2026-05-01 15:29 40.63956 -49.03769 40085 ft 471 kts 237°
2026-05-01 15:30 40.56378 -49.17800 40086 ft 470 kts 237°
2026-05-01 15:31 40.44967 -49.38714 40085 ft 469 kts 237°
2026-05-01 15:32 40.37358 -49.52593 40082 ft 468 kts 237°
2026-05-01 15:34 40.25938 -49.73309 40081 ft 467 kts 237°